| time (UTC) | temp F | wind direction | speed MPH | gust MPH | rain 1hr in | rain 24hr in | rain mn in | humidity % | barometer mb |
| 20260508100021 | 70 | 264 | 2.0 | 6.0 | 0.00 | 0.00 | 0.00 | 17 | 1008.2 |
| 20260508094522 | 69 | 315 | 2.0 | 9.0 | 0.00 | 0.00 | 0.00 | 17 | 1008.2 |
| 20260508093118 | 70 | 333 | 4.0 | 9.0 | 0.00 | 0.00 | 0.00 | 17 | 1008.0 |
| 20260508091514 | 71 | 328 | 3.0 | 8.0 | 0.00 | 0.00 | 0.00 | 16 | 1008.1 |
| 20260508090014 | 73 | 320 | 4.0 | 10.0 | 0.00 | 0.00 | 0.00 | 15 | 1008.0 |
| 20260508084509 | 74 | 303 | 3.0 | 7.0 | 0.00 | 0.00 | 0.00 | 15 | 1008.0 |
| 20260508083020 | 75 | 309 | 3.0 | 7.0 | 0.00 | 0.00 | 0.00 | 14 | 1008.2 |
| 20260508081506 | 75 | 297 | 1.0 | 5.0 | 0.00 | 0.00 | 0.00 | 15 | 1008.1 |
| 20260508080006 | 76 | 283 | 0.0 | 7.0 | 0.00 | 0.00 | 0.00 | 14 | 1008.2 |
| 20260508074504 | 73 | 292 | 2.0 | 5.0 | 0.00 | 0.00 | 0.00 | 16 | 1008.2 |
| 20260508073003 | 73 | 316 | 1.0 | 5.0 | 0.00 | 0.00 | 0.00 | 16 | 1008.3 |
| 20260508071600 | 74 | 297 | 1.0 | 4.0 | 0.00 | 0.00 | 0.00 | 16 | 1008.2 |
| 20260508070156 | 75 | 296 | 2.0 | 4.0 | 0.00 | 0.00 | 0.00 | 14 | 1008.3 |
| 20260508064608 | 75 | 286 | 1.0 | 4.0 | 0.00 | 0.00 | 0.00 | 15 | 1008.3 |
| 20260508063055 | 74 | 288 | 1.0 | 4.0 | 0.00 | 0.00 | 0.00 | 16 | 1008.2 |
| 20260508061553 | 74 | 301 | 2.0 | 5.0 | 0.00 | 0.00 | 0.00 | 16 | 1008.2 |
| 20260508060059 | 74 | 295 | 1.0 | 5.0 | 0.00 | 0.00 | 0.00 | 18 | 1008.1 |
| 20260508054555 | 74 | 295 | 0.0 | 0.0 | 0.00 | 0.00 | 0.00 | 19 | 1008.2 |
| 20260508053051 | 76 | 295 | 0.0 | 0.0 | 0.00 | 0.00 | 0.00 | 18 | 1008.2 |
| 20260508051551 | 78 | 328 | 0.0 | 3.0 | 0.00 | 0.00 | 0.00 | 17 | 1008.2 |
| 20260508050056 | 78 | 15 | 0.0 | 0.0 | 0.00 | 0.00 | 0.00 | 16 | 1008.3 |
| 20260508044550 | 79 | 68 | 0.0 | 0.0 | 0.00 | 0.00 | 0.00 | 15 | 1008.3 |
| 20260508043049 | 80 | 68 | 0.0 | 0.0 | 0.00 | 0.00 | 0.00 | 14 | 1008.2 |
| 20260508041551 | 81 | 68 | 0.0 | 1.0 | 0.00 | 0.00 | 0.00 | 13 | 1008.3 |
| 20260508040048 | 83 | 68 | 0.0 | 3.0 | 0.00 | 0.00 | 0.00 | 12 | 1008.0 |
| 20260508034554 | 84 | 91 | 2.0 | 7.0 | 0.00 | 0.00 | 0.00 | 12 | 1007.9 |
| 20260508033047 | 83 | 76 | 0.0 | 4.0 | 0.00 | 0.00 | 0.00 | 13 | 1007.8 |
| 20260508031546 | 84 | 188 | 0.0 | 0.0 | 0.00 | 0.00 | 0.00 | 14 | 1007.6 |
| 20260508024555 | 87 | 167 | 1.0 | 5.0 | 0.00 | 0.00 | 0.00 | 12 | 1007.3 |
| 20260508023045 | 88 | 199 | 1.0 | 7.0 | 0.00 | 0.00 | 0.00 | 12 | 1007.2 |
| 20260508021545 | 90 | 152 | 2.0 | 5.0 | 0.00 | 0.00 | 0.00 | 11 | 1007.1 |
| 20260508020047 | 91 | 127 | 3.0 | 6.0 | 0.00 | 0.00 | 0.00 | 11 | 1007.0 |
| 20260508014545 | 91 | 150 | 1.0 | 10.0 | 0.00 | 0.00 | 0.00 | 11 | 1007.0 |
| 20260508013045 | 91 | 111 | 3.0 | 8.0 | 0.00 | 0.00 | 0.00 | 10 | 1006.9 |
| 20260508011551 | 92 | 155 | 4.0 | 12.0 | 0.00 | 0.00 | 0.00 | 10 | 1007.0 |
| 20260508010050 | 92 | 198 | 5.0 | 10.0 | 0.00 | 0.00 | 0.00 | 9 | 1007.1 |
| 20260508004553 | 92 | 226 | 0.0 | 8.0 | 0.00 | 0.00 | 0.00 | 9 | 1007.2 |
| 20260508003042 | 92 | 187 | 4.0 | 13.0 | 0.00 | 0.00 | 0.00 | 9 | 1007.2 |
| 20260508001540 | 92 | 168 | 4.0 | 11.0 | 0.00 | 0.00 | 0.00 | 9 | 1007.2 |
| 20260508000035 | 92 | 160 | 3.0 | 9.0 | 0.00 | 0.00 | 0.00 | 9 | 1007.5 |
| 20260507234534 | 92 | 131 | 0.0 | 9.0 | 0.00 | 0.00 | 0.00 | 9 | 1007.7 |
| 20260507233032 | 92 | 227 | 0.0 | 6.0 | 0.00 | 0.00 | 0.00 | 9 | 1007.9 |
| 20260507231528 | 90 | 117 | 0.0 | 7.0 | 0.00 | 0.00 | 0.00 | 9 | 1008.1 |
| 20260507230028 | 91 | 142 | 2.0 | 8.0 | 0.00 | 0.00 | 0.00 | 9 | 1008.3 |
| 20260507224525 | 90 | 134 | 3.0 | 8.0 | 0.00 | 0.00 | 0.00 | 10 | 1008.4 |
| 20260507223023 | 90 | 94 | 4.0 | 8.0 | 0.00 | 0.00 | 0.00 | 10 | 1008.7 |
| 20260507221521 | 89 | 217 | 2.0 | 6.0 | 0.00 | 0.00 | 0.00 | 10 | 1009.1 |
| 20260507220017 | 88 | 96 | 1.0 | 6.0 | 0.00 | 0.00 | 0.00 | 10 | 1009.6 |
| 20260507214515 | 89 | 143 | 4.0 | 8.0 | 0.00 | 0.00 | 0.00 | 10 | 1009.9 |
| 20260507213018 | 88 | 356 | 2.0 | 4.0 | 0.00 | 0.00 | 0.00 | 10 | 1010.3 |
| 20260507211511 | 89 | 144 | 0.0 | 3.0 | 0.00 | 0.00 | 0.00 | 10 | 1010.6 |
| 20260507210007 | 88 | 244 | 0.0 | 8.0 | 0.00 | 0.00 | 0.00 | 10 | 1011.0 |
| 20260507204505 | 86 | 303 | 2.0 | 6.0 | 0.00 | 0.00 | 0.00 | 11 | 1011.3 |
| 20260507203001 | 87 | 164 | 1.0 | 6.0 | 0.00 | 0.00 | 0.00 | 10 | 1011.5 |
| 20260507201559 | 87 | 164 | 2.0 | 7.0 | 0.00 | 0.00 | 0.00 | 10 | 1011.8 |
| 20260507200056 | 86 | 99 | 3.0 | 6.0 | 0.00 | 0.00 | 0.00 | 10 | 1011.9 |
| 20260507194554 | 85 | 127 | 0.0 | 8.0 | 0.00 | 0.00 | 0.00 | 11 | 1012.3 |
| 20260507193057 | 85 | 314 | 0.0 | 7.0 | 0.00 | 0.00 | 0.00 | 12 | 1012.5 |
| 20260507191548 | 85 | 105 | 3.0 | 6.0 | 0.00 | 0.00 | 0.00 | 11 | 1012.8 |
| 20260507190046 | 85 | 103 | 5.0 | 9.0 | 0.00 | 0.00 | 0.00 | 11 | 1013.0 |
| 20260507184544 | 84 | 158 | 2.0 | 7.0 | 0.00 | 0.00 | 0.00 | 11 | 1013.3 |
| 20260507183042 | 83 | 86 | 3.0 | 8.0 | 0.00 | 0.00 | 0.00 | 11 | 1013.4 |
| 20260507181537 | 82 | 137 | 4.0 | 8.0 | 0.00 | 0.00 | 0.00 | 13 | 1013.7 |
| 20260507180037 | 81 | 110 | 5.0 | 8.0 | 0.00 | 0.00 | 0.00 | 13 | 1013.8 |
| 20260507174538 | 81 | 167 | 4.0 | 7.0 | 0.00 | 0.00 | 0.00 | 13 | 1014.0 |
| 20260507173034 | 81 | 107 | 4.0 | 7.0 | 0.00 | 0.00 | 0.00 | 13 | 1014.2 |
| 20260507171532 | 80 | 120 | 4.0 | 7.0 | 0.00 | 0.00 | 0.00 | 14 | 1014.3 |
| 20260507170028 | 79 | 89 | 4.0 | 8.0 | 0.00 | 0.00 | 0.00 | 14 | 1014.3 |
| 20260507164528 | 79 | 117 | 3.0 | 7.0 | 0.00 | 0.00 | 0.00 | 15 | 1014.4 |
| 20260507163027 | 79 | 101 | 3.0 | 8.0 | 0.00 | 0.00 | 0.00 | 15 | 1014.6 |
| 20260507161526 | 79 | 192 | 1.0 | 6.0 | 0.00 | 0.00 | 0.00 | 16 | 1014.7 |
| 20260507160023 | 77 | 283 | 0.0 | 3.0 | 0.00 | 0.00 | 0.00 | 17 | 1014.8 |
| 20260507154522 | 76 | 321 | 0.0 | 3.0 | 0.00 | 0.00 | 0.00 | 18 | 1014.8 |
| 20260507153015 | 75 | 319 | 2.0 | 5.0 | 0.00 | 0.00 | 0.00 | 19 | 1015.0 |
| 20260507151513 | 74 | 321 | 1.0 | 5.0 | 0.00 | 0.00 | 0.00 | 20 | 1015.1 |
| 20260507150011 | 72 | 301 | 2.0 | 6.0 | 0.00 | 0.00 | 0.00 | 21 | 1015.1 |
| 20260507144505 | 71 | 308 | 1.0 | 7.0 | 0.00 | 0.00 | 0.00 | 22 | 1015.1 |
| 20260507143002 | 70 | 310 | 2.0 | 6.0 | 0.00 | 0.00 | 0.00 | 22 | 1015.1 |
| 20260507141603 | 69 | 300 | 0.0 | 3.0 | 0.00 | 0.00 | 0.00 | 23 | 1015.2 |
| 20260507140116 | 66 | 291 | 0.0 | 3.0 | 0.00 | 0.00 | 0.00 | 27 | 1015.1 |
| 20260507134556 | 64 | 317 | 0.0 | 4.0 | 0.00 | 0.00 | 0.00 | 27 | 1015.1 |
| 20260507133054 | 62 | 312 | 2.0 | 5.0 | 0.00 | 0.00 | 0.00 | 28 | 1015.0 |
| 20260507131603 | 61 | 307 | 0.0 | 2.0 | 0.00 | 0.00 | 0.00 | 28 | 1014.7 |
| 20260507130100 | 61 | 310 | 0.0 | 3.0 | 0.00 | 0.00 | 0.00 | 28 | 1014.6 |
| 20260507124603 | 61 | 307 | 0.0 | 1.0 | 0.00 | 0.00 | 0.00 | 27 | 1014.5 |
| 20260507123056 | 62 | 295 | 0.0 | 3.0 | 0.00 | 0.00 | 0.00 | 25 | 1014.4 |
| 20260507121548 | 62 | 299 | 0.0 | 2.0 | 0.00 | 0.00 | 0.00 | 23 | 1014.3 |
| 20260507120046 | 63 | 300 | 0.0 | 3.0 | 0.00 | 0.00 | 0.00 | 23 | 1014.5 |
| 20260507114547 | 63 | 295 | 0.0 | 1.0 | 0.00 | 0.00 | 0.00 | 24 | 1014.4 |
| 20260507113043 | 62 | 294 | 0.0 | 3.0 | 0.00 | 0.00 | 0.00 | 24 | 1014.4 |
| 20260507111545 | 62 | 304 | 0.0 | 0.0 | 0.00 | 0.00 | 0.00 | 26 | 1014.3 |
| 20260507110039 | 63 | 304 | 0.0 | 0.0 | 0.00 | 0.00 | 0.00 | 25 | 1014.4 |
| 20260507104540 | 63 | 304 | 0.0 | 2.0 | 0.00 | 0.00 | 0.00 | 25 | 1014.4 |
| 20260507103036 | 63 | 239 | 0.0 | 0.0 | 0.00 | 0.00 | 0.00 | 26 | 1014.3 |
| 20260507101544 | 63 | 238 | 0.0 | 0.0 | 0.00 | 0.00 | 0.00 | 28 | 1014.3 |